Weather in Palo Alto

United States     37°25′39″N   122°07′34″W
temp.,
°C
wind,
m/s
gust,
m/s
humid.,
%
clouds,
%
prec.,
mm/h
press.,
hPa
HPBL,
m
18 may, tue
tue1823:00+10sw35909 0.0 1019153
02:00+9sw359017 0.0 1019153
05:00+9sw349210 0.0 1020124
08:00+12wsw35770 0.0 1020305
11:00+16wnw58590 0.0 1020479
14:00+18w710510 0.0 1019541
17:00+16w711530 0.0 1018490
20:00+11wsw611690 0.0 1018409
19 may, wed
wed1923:00+9wsw48863 0.0 1018239
02:00+9wsw510860 0.0 1018328
05:00+8wsw59860 0.0 1017341
08:00+11w610680 0.0 1017616
11:00+14wnw710550 0.0 1016676
14:00+14w912500 0.0 1016767
17:00+13w913550 0.0 1015740
20:00+10w816700 0.0 1015730
20 may, thu
thu2023:00+9wnw817740 0.0 1016676
02:00+9wnw812750 0.0 1016650
05:00+7w36820 0.0 1017300
08:00+10nw37580 0.0 1018543
11:00+13nnw58430 0.0 1018826
14:00+14wnw910460 0.0 1017830
17:00+13wnw1013550 0.0 1016685
20:00+10w611750 0.0 1016510
21 may, fri
fri2123:00+8sw34871 0.0 1016121
02:00+7ssw22900 0.0 101664
05:00+7sw22900 0.0 101656
08:00+10wsw117431 0.0 1016213
11:00+14nw33470 0.0 1016783
14:00+17w66390 0.0 1016877
17:00+14w79550 0.0 1015563
20:00+10wsw598082 0.0 1016460
22 may, sat
sat2223:00+10ssw2386100 0.0 1016192
02:00+9s33904 0.0 101667
05:00+8sse229090 0.0 101738
08:00+11sw1276100 0.0 1017172
11:00+16w33575 0.0 1017635
14:00+16wsw455641 0.0 1017577
17:00+15w45590 0.0 1016410
20:00+10sw33811 0.0 1017128